Flag for U.S.A. Weather past 2 weeks in Jackson, Mississippi, U.S.A.

Now
79 °F

Sunny.


Feels Like: 82 °F
Forecast: 72 / 93 °F
Wind: 3 mph from West

Location: Hawkins Field

Current Time: Jul 26, 2014 at 9:01:43 AM

Latest Report: Jul 26, 2014 at 7:53 AM


Visibility: 8 mi

Pressure: 30.04 "Hg

Humidity: 82%

Dew point: 73 °F

Location of JacksonLocation

Historic Weather in Jackson — Graph

°F

Jackson temperature yesterday

Maximum temperature yesterday: 89 °F (at 1:53 PM)
Minimum temperature yesterday: 71 °F (at 5:53 AM)
Average temperature yesterday: 81 °F

Past Weeks' High & Low Weather Summary

 TemperatureHumidityPressure
High92 °F (Jul 12, 2:53 PM)91% (Jul 12, 12:53 AM)30.15 "Hg (Jul 12, 12:53 AM)
Low63 °F (Jul 16, 6:53 AM)40% (Jul 16, 3:53 PM)29.88 "Hg (Jul 15, 4:53 PM)
Average78 °F73%30.00 "Hg
* Reported Jul 11 7:53 AM — Jul 26 7:53 AM, Jackson, Weather by CustomWeather, © 2014

Note: Actual official high and low records may vary slightly from our data, if they occured in-between our weather recording intervals... More about our weather records

Advertising

Jackson weather history for previous 24 hours

 ConditionsComfort  
Time TempWeatherWind HumidityBarometerVisibility
7:53 AM
Jul 26
79 °FSunny.3 mph82%30.04 "Hg8 mi
6:53 AM75 °FClear.No wind88%30.02 "Hg7 mi
5:53 AM75 °FClear.No wind85%30.00 "Hg9 mi
4:53 AM76 °FPassing clouds.No wind82%29.99 "Hg10 mi
3:53 AM76 °FPassing clouds.No wind82%29.98 "Hg10 mi
2:53 AM75 °FClear.No wind85%29.98 "Hg10 mi
1:53 AM76 °FClear.No wind82%29.98 "Hg10 mi
12:53 AM76 °FClear.No wind82%30.00 "Hg10 mi
11:53 PM
Jul 25
75 °FClear.No wind85%30.00 "Hg10 mi
10:53 PM76 °FClear.No wind82%29.99 "Hg10 mi
9:53 PM79 °FClear.No wind77%29.98 "Hg10 mi
8:53 PM82 °FSunny.No wind70%29.97 "Hg10 mi
7:53 PM84 °FSunny.3 mph63%29.96 "Hg10 mi
6:53 PM87 °FSunny.3 mph55%29.97 "Hg10 mi
5:53 PM88 °FSunny.6 mph55%29.97 "Hg10 mi
4:53 PM89 °FSunny.8 mph53%29.98 "Hg10 mi
3:53 PM89 °FPassing clouds.8 mph53%29.98 "Hg10 mi
2:53 PM89 °FPassing clouds.7 mph53%29.98 "Hg10 mi
1:53 PM89 °FPassing clouds.7 mph55%29.99 "Hg10 mi
12:53 PM87 °FScattered clouds.9 mph57%30.01 "Hg10 mi
11:53 AM87 °FPassing clouds.10 mph57%30.02 "Hg10 mi
10:53 AM85 °FSunny.6 mph61%30.03 "Hg10 mi
9:53 AM82 °FSunny.No wind63%30.03 "Hg10 mi
Weather by CustomWeather, © 2014

See weather overviewHow to use our weather pages